Tracking 29892 objects as of 21-Nov-2024
HD Live streaming from Space Station
objects crossing your sky now

COSMOS 1275 DEB

Track COSMOS 1275 DEB now!
10-day predictions


NORAD ID: 12751
Int'l Code: 1981-053CU
Perigee: 946.3 km
Apogee: 989.3 km
Inclination: 82.9 °
Period: 104.3 minutes
Semi major axis: 7338 km
RCS: 0.177 m2 (medium)
Launch date: June 4, 1981
Source: Commonwealth of Independent States (former USSR) (CIS)
Launch site: PLESETSK MISSILE AND SPACE COMPLEX (PKMTR)

Note: This is SATELLITE DEBRIS
Your satellite tracking list
Your tracking list is empty




NASA's NSSDC Master Catalog

Two Line Element Set (TLE):
1 12751U 81053CU  24325.26777234  .00000566  00000-0  52087-3 0  9999
2 12751  82.9434 246.5041 0029320 113.0957  51.1150 13.80907814176864
Source of the keplerian elements: AFSPC